Vertical_Velocity
6 7 3 18 2 5 1 0 24 13 1 -5 10 4 5 1 5 -0 -1 -0 1 2 4 2 2 3 -3 1 2 2 -3 -0 2 -0 2 0 -0 -0 -1 -1 -1 -2 -3 -2 -1
8 1 -3 -4 5 18 1 -2 6 19 25 1 -2 5 3 -1 2 4 7 5 9 1 2 3 2 1 4 5 2 -2 1 2 1 1 0 -1 -2 1 -2 -2 -1 -1 -2 -1 -1
3 -4 3 -5 3 10 -2 15 7 2 -6 0 1 10 -1 4 0 5 -2 2 6 7 3 4 1 -2 3 -2 -0 -0 1 1 -1 1 1 -0 -1 -1 -1 -2 -4 -3 -1 -0 1
-1 5 1 2 -7 -5 12 13 0 -1 2 -2 -2 5 -2 -2 -1 -0 0 1 -0 0 3 1 1 0 -1 3 2 0 1 1 -0 -1 -1 -0 -1 -0 -1 -2 -2 -0 -0 0 0
3 -2 -4 -6 1 2 -3 8 1 2 5 5 7 8 2 2 1 -1 2 2 -0 0 2 3 2 2 -1 2 -1 -1 0 1 1 -1 0 0 0 0 -1 -0 0 -0 0 0 -1
0 1 -4 -4 1 2 -3 2 3 5 1 -1 7 4 6 -0 0 2 3 4 2 -0 -1 2 1 1 0 -1 0 2 0 -0 1 1 -1 0 -0 -0 -0 -1 -0 0 0 -0 -1
5 5 3 2 2 2 -4 10 2 0 -4 -1 3 2 8 1 0 1 4 2 2 -1 0 1 0 4 4 -1 -1 -0 -0 1 2 1 2 0 -1 2 -1 -2 -1 0 -0 -0 -1
-4 -2 -3 -3 -3 -2 -7 -3 2 2 1 1 5 4 9 3 1 1 1 1 2 2 -0 -1 2 1 1 4 2 1 0 1 3 2 1 -0 -1 -0 1 0 1 1 0 -1 -1
-3 -2 3 -2 -2 -3 -5 -6 3 -2 -2 -5 -1 2 -2 6 1 2 2 -0 1 1 1 1 0 1 1 2 0 -1 2 1 0 2 1 1 1 1 -0 0 2 1 -1 -1 -2
-5 -9 -13 -8 -7 -8 -8 -9 4 -4 -2 1 -2 -2 2 -1 1 -0 1 -5 0 1 1 -1 1 3 -1 -0 3 3 2 2 -0 1 0 -1 -0 0 -2 1 -1 -1 -1 -2 -2
-7 -0 -3 -6 -6 -6 -2 -13 3 -8 -3 -0 -1 -2 1 1 3 0 1 -7 1 0 2 2 -1 1 0 -1 0 1 1 -1 -1 -1 -1 0 0 -5 -1 0 -3 -3 -3 -3 -2
-1 -2 3 -1 9 -1 -1 -2 -8 6 1 0 -2 -1 -4 2 2 -1 1 4 -2 1 1 -1 -1 1 -0 -1 -1 -1 -3 -3 -3 -2 -1 -3 2 -5 -5 0 0 -2 -3 -1 -1
-7 -5 1 3 4 3 -3 -4 2 -1 2 -5 -1 -1 2 -1 0 4 -1 -1 -4 -2 -0 1 0 -1 -2 -2 -2 -3 -2 -2 -2 -4 -3 -4 2 -5 -3 -4 -5 -3 -4 -1 -3
-1 -3 -6 -3 3 3 -15 -4 -1 -1 -0 -1 -2 -2 4 3 1 -1 -3 -1 1 -3 -0 -2 -0 0 -0 -1 -0 -0 -1 -1 -1 -2 -3 -2 -12 8 -3 -5 -6 -6 -5 -2 -2
-6 4 8 12 1 10 9 4 3 -8 -2 1 1 1 -0 4 4 -0 0 -0 -2 -2 2 -6 -2 -1 -1 -4 -3 -3 -1 -1 -2 -3 -5 3 -21 15 4 -1 -2 -4 -2 -3 -2
2 -5 -1 -0 -3 -5 -3 -8 -3 1 1 -1 1 0 -2 -2 1 0 1 0 -1 -1 -1 -3 -2 -2 -4 -4 -2 -2 -2 -1 -3 -3 -12 3 -3 13 5 -3 -4 -3 -1 -2 -1
-2 -0 2 -1 -1 -0 6 6 -2 -2 -3 -3 -1 -1 -2 -1 2 1 0 -0 -1 -1 -0 -0 -3 -3 -2 -2 -3 -1 -2 -7 -8 -4 -9 -0 -9 10 2 0 -2 -3 -1 -1 2
-2 -2 -3 -4 -3 -1 2 1 -1 -3 -3 -4 -2 -0 1 -2 -2 0 1 0 -0 -1 -2 -0 -3 -2 -1 -2 -2 -2 -1 -2 -4 -1 -1 -3 -6 -1 -2 0 -0 1 -0 1 2
-2 -1 -2 0 -1 1 -3 -1 -2 -2 -1 1 -1 -0 -1 -0 -0 -2 -0 0 0 -0 0 -1 -1 -1 -1 -2 -2 -3 -1 -2 -2 -2 -3 -2 -0 -3 -0 -0 -0 -1 -1 -0 -3
-1 -2 -1 -0 -1 2 -7 2 1 -2 -1 0 -0 -2 -2 -1 -0 0 -1 -3 -2 -2 -2 -1 -1 -1 -2 -1 -1 -1 -1 -1 -2 -6 -4 -0 -0 -6 -3 -2 -1 -3 -2 -4 -4
-0 -1 2 1 1 4 -5 2 -1 -0 -0 -2 -0 1 1 1 1 -1 1 0 0 0 -1 -2 -2 -1 -2 -1 -2 -1 -0 -2 -3 -4 -6 -6 7 -9 -1 -2 -1 -1 -1 -1 -1
0 -3 -1 2 -1 -3 -0 -1 -3 -2 -1 -1 -1 -2 -0 -0 0 0 -1 -1 -1 -0 -0 -0 -2 -2 -2 -2 -2 -2 -2 -2 -1 5 -2 -5 19 1 -1 -2 -0 3 -0 -1 -3
1 1 -3 -1 1 -1 -1 -2 -0 -1 -1 -4 -3 -1 -1 -3 -2 -1 -1 -2 -1 -2 -2 -2 -1 -0 -1 -0 1 1 -1 -1 -1 -1 3 -2 -5 -1 1 1 1 1 0 0 -0
0 2 -0 -3 -2 -1 -4 -1 0 0 -1 1 1 -0 -2 0 1 -0 0 -1 -2 -3 -3 -2 -2 -3 -3 -2 -1 -1 -1 -2 -1 -0 0 -2 -2 -2 0 1 0 -0 0 2 2
2 -2 -1 1 -3 -2 -2 -4 -2 -1 1 -0 -1 1 0 -1 -0 0 -0 -1 -1 -0 0 -0 -0 -0 0 -0 -0 -0 0 1 1 1 0 -1 -0 -0 -1 1 1 -1 1 2 1
2 1 1 -1 3 1 1 -2 -3 -2 -1 0 -0 -0 0 2 2 0 -0 -0 1 1 -0 -1 -0 -0 0 1 0 -0 -1 -0 -0 -1 -1 -1 -1 -1 -0 -2 -1 -0 -0 3 1
-2 1 1 1 -0 -1 0 2 1 -1 -2 -1 -2 -1 -1 0 2 -0 -2 -0 0 0 1 2 3 1 0 0 -0 1 -0 -0 -0 -1 0 -1 -2 -1 -1 -1 3 -0 2 -0 -2
Height
5612 5609 5608 5605 5604 5606 5609 5615 5623 5633 5638 5645 5650 5668 5686 5702 5714 5727 5739 5751 5761 5770 5778 5788 5796 5802 5810 5817 5823 5828 5834 5838 5842 5846 5850 5852 5855 5857 5859 5861 5862 5863 5864 5865 5866
5612 5611 5611 5611 5610 5613 5619 5625 5628 5633 5637 5644 5652 5666 5685 5700 5713 5726 5738 5748 5759 5766 5773 5783 5791 5799 5806 5812 5818 5823 5828 5834 5838 5841 5845 5848 5851 5853 5855 5856 5858 5859 5860 5861 5862
5616 5614 5614 5615 5614 5618 5621 5624 5630 5636 5642 5647 5656 5666 5684 5699 5711 5720 5729 5741 5753 5763 5769 5778 5786 5794 5802 5807 5813 5819 5824 5828 5832 5836 5840 5843 5846 5848 5849 5851 5853 5854 5855 5856 5857
5622 5619 5619 5620 5621 5622 5626 5630 5634 5640 5645 5650 5658 5666 5683 5697 5709 5717 5728 5738 5749 5758 5766 5774 5782 5790 5796 5803 5808 5814 5818 5823 5827 5831 5834 5838 5840 5842 5844 5846 5847 5849 5851 5852 5853
5625 5625 5625 5625 5625 5626 5628 5633 5639 5645 5650 5653 5659 5668 5683 5697 5709 5719 5727 5737 5746 5754 5762 5769 5778 5785 5792 5798 5804 5808 5813 5817 5821 5825 5829 5832 5835 5837 5839 5841 5843 5845 5846 5847 5849
5624 5628 5629 5629 5629 5632 5634 5638 5644 5649 5651 5654 5661 5671 5683 5697 5708 5718 5727 5735 5744 5752 5759 5766 5774 5781 5787 5793 5799 5804 5808 5812 5816 5820 5824 5828 5830 5833 5836 5837 5839 5841 5842 5843 5844
5628 5628 5631 5631 5634 5637 5639 5644 5649 5654 5658 5659 5665 5674 5684 5697 5707 5717 5725 5734 5742 5751 5758 5764 5771 5778 5784 5790 5794 5799 5804 5807 5811 5816 5820 5823 5826 5829 5830 5832 5834 5835 5836 5838 5838
5634 5633 5635 5638 5641 5643 5646 5649 5653 5658 5662 5665 5670 5679 5689 5697 5707 5716 5725 5733 5741 5749 5757 5763 5769 5775 5781 5787 5792 5797 5801 5804 5808 5812 5816 5819 5822 5823 5825 5827 5828 5830 5831 5832 5832
5640 5639 5640 5642 5646 5649 5652 5654 5658 5663 5667 5671 5675 5682 5691 5698 5708 5716 5724 5733 5740 5747 5754 5761 5768 5773 5779 5784 5788 5792 5798 5802 5805 5808 5811 5814 5816 5818 5819 5821 5822 5823 5824 5825 5825
5643 5643 5645 5648 5651 5653 5656 5659 5664 5668 5671 5675 5680 5687 5692 5700 5708 5716 5723 5732 5739 5746 5753 5759 5765 5770 5775 5780 5786 5790 5794 5797 5800 5804 5806 5808 5811 5812 5813 5815 5816 5817 5818 5818 5818
5648 5644 5646 5649 5654 5656 5659 5668 5673 5676 5678 5681 5683 5687 5693 5700 5708 5715 5722 5731 5737 5744 5750 5756 5762 5767 5772 5777 5781 5785 5789 5792 5795 5798 5800 5802 5806 5806 5807 5810 5810 5810 5810 5809 5809
5656 5652 5651 5652 5654 5660 5667 5675 5678 5683 5682 5684 5685 5688 5693 5699 5706 5714 5722 5730 5737 5742 5747 5753 5758 5763 5768 5772 5777 5780 5784 5787 5789 5792 5794 5796 5800 5800 5799 5803 5803 5803 5802 5801 5800
5668 5665 5663 5661 5666 5668 5674 5680 5683 5685 5688 5689 5689 5689 5693 5700 5705 5713 5720 5726 5733 5739 5744 5749 5755 5759 5764 5768 5772 5775 5779 5782 5784 5786 5788 5789 5792 5794 5795 5794 5794 5794 5793 5793 5792
5681 5678 5674 5674 5677 5677 5684 5687 5688 5690 5692 5694 5695 5695 5696 5699 5706 5711 5718 5726 5731 5737 5742 5746 5751 5755 5759 5763 5767 5770 5773 5775 5778 5780 5781 5782 5781 5787 5787 5787 5785 5784 5783 5784 5783
5693 5689 5688 5687 5688 5688 5689 5692 5693 5695 5698 5698 5697 5698 5699 5702 5706 5709 5716 5722 5728 5733 5740 5745 5749 5752 5755 5759 5763 5766 5768 5770 5771 5772 5772 5775 5772 5776 5780 5779 5777 5775 5774 5773 5772
5701 5698 5697 5697 5698 5697 5696 5698 5699 5702 5700 5701 5701 5701 5702 5703 5706 5709 5714 5720 5725 5730 5734 5739 5744 5748 5752 5755 5758 5760 5761 5762 5764 5764 5763 5765 5764 5766 5766 5767 5767 5766 5764 5763 5762
5707 5705 5704 5702 5702 5702 5701 5702 5703 5703 5705 5706 5705 5704 5706 5707 5708 5710 5714 5718 5723 5728 5731 5735 5738 5742 5745 5749 5751 5753 5755 5755 5756 5756 5756 5757 5756 5759 5758 5757 5757 5757 5756 5755 5754
5715 5712 5709 5707 5706 5704 5703 5704 5704 5704 5705 5707 5707 5708 5709 5710 5712 5713 5716 5719 5722 5725 5728 5732 5736 5738 5741 5744 5746 5747 5749 5749 5748 5749 5750 5749 5749 5750 5750 5749 5749 5749 5749 5748 5748
5723 5719 5716 5712 5709 5708 5707 5706 5705 5706 5707 5708 5709 5710 5711 5713 5716 5717 5719 5721 5723 5725 5729 5730 5733 5736 5738 5740 5742 5743 5744 5744 5743 5743 5742 5743 5743 5742 5743 5742 5742 5742 5742 5741 5740
5730 5725 5721 5718 5715 5712 5710 5708 5708 5708 5708 5709 5710 5712 5713 5715 5717 5718 5720 5722 5724 5726 5728 5730 5732 5734 5735 5737 5738 5739 5739 5740 5738 5738 5737 5737 5737 5735 5735 5736 5735 5735 5735 5734 5733
5736 5732 5728 5725 5721 5718 5714 5713 5711 5711 5712 5712 5712 5713 5714 5716 5717 5719 5721 5723 5724 5725 5727 5729 5731 5733 5733 5734 5734 5736 5735 5735 5734 5733 5730 5730 5732 5728 5727 5727 5727 5728 5729 5729 5729
5741 5737 5734 5730 5728 5723 5720 5718 5716 5714 5714 5714 5715 5715 5715 5716 5718 5719 5720 5722 5723 5725 5726 5727 5728 5729 5730 5730 5730 5730 5730 5728 5727 5727 5724 5722 5725 5720 5719 5719 5720 5722 5723 5725 5725
5745 5741 5739 5735 5732 5729 5726 5723 5721 5719 5718 5718 5718 5718 5718 5718 5718 5718 5719 5720 5721 5722 5722 5724 5724 5724 5724 5725 5724 5724 5723 5722 5721 5721 5721 5719 5720 5717 5716 5716 5717 5719 5720 5721 5721
5747 5745 5742 5740 5736 5733 5731 5728 5726 5724 5722 5721 5721 5721 5720 5720 5720 5720 5720 5720 5721 5722 5722 5723 5722 5722 5722 5722 5722 5721 5720 5720 5719 5718 5718 5717 5716 5715 5714 5714 5715 5716 5717 5717 5716
5748 5746 5745 5742 5740 5738 5735 5732 5730 5728 5726 5726 5724 5723 5723 5722 5722 5722 5722 5722 5722 5721 5721 5720 5720 5720 5720 5720 5719 5719 5718 5717 5716 5716 5715 5714 5713 5712 5712 5713 5713 5714 5714 5713 5712
5748 5746 5744 5743 5741 5740 5738 5736 5734 5732 5731 5729 5728 5726 5725 5725 5725 5724 5723 5723 5724 5723 5723 5722 5722 5720 5720 5719 5718 5717 5717 5716 5715 5714 5713 5713 5712 5711 5711 5711 5711 5711 5711 5709 5709
5746 5746 5745 5742 5741 5740 5739 5737 5736 5735 5733 5731 5730 5729 5729 5728 5726 5726 5725 5725 5724 5724 5723 5722 5721 5721 5720 5719 5718 5718 5716 5715 5713 5712 5711 5710 5709 5708 5707 5707 5708 5707 5705 5705 5707